Wetbulb
62.25 56.13 54.93 53.60 46.99 45.71 42.20 43.58 45.24 45.60 47.15 50.25 51.46 50.42 50.58 50.76 51.18 48.26 61.25 68.61 69.45 70.91 71.72 71.61 71.06 71.01 71.71 72.45 72.59 73.26 73.78 73.83 73.70 73.65 73.34 73.29 73.20 72.91 73.09 73.12 73.11 73.10 73.42 73.09 73.09 73.62 72.88 72.35 71.93
58.54 53.85 53.09 49.31 44.29 40.78 42.55 44.72 45.15 48.01 49.87 51.11 51.14 51.08 51.11 50.19 57.08 60.44 62.72 68.54 70.20 70.85 71.58 71.66 70.30 71.14 71.98 72.11 72.60 73.00 73.86 73.74 73.52 73.41 73.17 72.83 73.01 73.03 73.09 72.75 72.38 72.60 72.95 72.89 72.59 72.65 71.91 71.64 70.88
56.17 54.22 51.43 47.18 42.42 40.31 42.48 45.63 47.60 49.00 50.53 50.16 50.37 52.03 52.20 52.64 60.22 62.01 64.94 69.38 70.42 70.53 71.18 71.52 70.10 70.73 71.58 71.96 72.21 72.71 73.16 72.94 72.48 72.33 73.07 72.74 72.54 72.75 72.68 72.10 71.72 71.96 72.63 72.77 72.09 71.88 71.29 70.45 69.66
54.85 53.62 48.41 43.60 41.23 43.85 44.71 47.83 47.99 49.24 50.40 50.44 50.52 50.03 53.24 57.99 62.09 64.97 66.40 69.82 70.16 70.63 71.04 70.05 69.47 70.41 71.40 71.77 72.04 72.25 72.19 71.98 71.76 72.07 72.38 71.83 72.03 71.76 71.17 71.14 71.41 70.75 71.96 72.13 71.89 71.11 70.53 69.17 68.50
50.85 49.71 43.95 41.23 40.79 43.34 46.30 48.21 48.83 48.47 48.88 50.17 50.15 49.99 52.21 58.70 64.25 65.51 66.87 69.64 69.96 70.62 71.19 71.41 68.79 70.20 71.11 71.58 72.06 71.72 71.48 71.17 70.45 70.53 70.94 70.29 69.97 69.40 69.26 69.46 69.56 69.91 70.80 70.64 70.24 70.28 69.07 68.19 67.96
48.64 47.76 41.49 38.78 40.48 43.49 46.96 49.13 48.26 47.67 48.33 49.04 49.36 49.95 52.71 60.49 63.38 65.62 68.25 69.53 70.67 70.57 71.26 71.40 69.85 70.03 70.55 70.64 70.03 70.45 70.37 69.14 69.11 70.09 70.19 69.24 68.39 69.33 69.51 69.54 69.35 69.55 69.54 68.93 68.88 68.71 68.15 67.56 67.23
47.08 44.79 40.75 40.02 40.20 42.20 45.48 49.10 48.09 48.22 47.95 48.02 51.51 49.54 54.67 58.95 63.31 65.65 68.63 69.58 69.86 70.68 70.87 71.37 71.65 70.90 69.54 69.15 68.72 69.01 69.21 69.05 68.70 68.46 68.06 68.10 68.33 68.32 68.88 68.62 68.66 68.95 68.74 68.78 68.46 67.26 67.21 67.07 66.19
47.13 46.40 39.75 40.45 40.73 41.61 47.07 48.41 48.95 48.95 48.62 50.28 54.05 50.60 52.26 58.31 63.79 65.52 67.89 69.10 69.21 69.72 70.47 70.84 71.22 71.45 71.96 72.01 68.25 67.94 68.00 67.58 67.48 67.35 66.43 66.47 66.46 66.96 67.48 67.23 67.84 68.38 68.39 68.02 67.62 66.53 66.08 65.34 64.97
46.57 42.03 38.86 40.60 40.77 43.42 47.30 46.90 49.04 50.56 49.04 49.85 51.28 52.04 56.15 61.09 63.83 64.31 65.05 66.59 67.63 68.09 69.14 69.89 70.41 70.82 70.49 70.36 71.15 68.66 67.58 67.13 66.75 67.14 65.81 65.15 67.46 67.19 65.79 66.22 66.96 67.54 67.42 67.36 66.44 65.99 65.08 64.39 63.69
45.81 41.04 40.18 43.67 44.77 44.68 46.55 46.81 47.72 48.15 47.87 48.49 49.70 52.48 59.49 61.67 62.61 62.81 63.02 63.80 65.45 66.70 67.44 69.02 69.90 69.44 68.43 68.25 69.46 70.99 69.57 68.69 68.22 68.40 67.37 67.65 67.24 67.12 66.53 66.32 66.17 66.95 67.00 66.54 65.81 65.24 64.22 64.74 65.87
45.17 41.51 43.54 44.83 46.03 46.45 46.41 46.60 48.40 47.38 46.59 49.19 49.47 51.62 53.44 59.17 61.14 62.07 63.15 63.89 64.47 66.22 67.42 67.95 68.83 70.02 68.38 67.38 67.64 68.27 67.69 67.76 67.55 67.43 67.65 66.94 66.63 66.71 66.89 65.48 66.79 67.23 67.02 66.60 65.61 64.62 64.02 65.31 64.89
42.05 43.78 45.90 46.50 46.70 46.64 45.83 47.36 47.09 47.47 48.69 51.74 51.59 52.25 51.65 53.89 57.62 60.94 62.11 63.34 63.58 64.39 66.18 67.42 68.19 68.28 68.08 67.33 66.66 66.36 66.35 66.65 65.68 65.52 66.08 66.76 66.01 65.97 65.62 64.24 65.09 65.43 67.22 66.04 64.96 62.23 63.03 64.15 63.96
42.69 44.24 45.45 46.81 46.82 46.78 47.39 46.41 46.64 46.46 50.50 51.57 51.58 51.41 51.05 52.46 56.52 60.91 62.72 63.56 63.90 63.62 64.98 66.43 67.23 67.58 66.66 65.72 65.43 65.67 65.14 66.38 65.84 64.27 64.65 65.21 66.15 65.34 65.45 64.89 64.86 65.28 65.05 64.79 62.22 62.30 61.72 62.98 62.60
44.44 44.76 45.41 46.24 46.29 46.15 45.55 46.53 46.94 48.08 50.46 49.98 50.42 51.62 52.51 51.67 54.71 58.68 61.09 61.79 62.44 63.68 64.48 65.89 66.24 66.31 65.21 64.97 64.27 64.71 65.25 65.67 66.84 64.54 63.72 63.88 64.39 64.33 64.45 64.38 64.97 63.83 64.95 63.42 62.04 62.01 60.73 61.96 62.38
45.39 41.99 44.46 44.82 45.69 45.84 46.68 44.28 44.57 49.80 50.67 49.39 50.13 51.41 51.66 51.85 52.82 56.18 59.37 60.94 62.64 63.54 64.55 64.58 65.27 65.79 64.77 64.70 64.05 63.74 64.11 64.09 64.19 64.68 64.02 63.79 63.65 63.70 63.98 64.55 63.34 63.97 64.38 62.68 61.34 61.38 61.43 61.22 61.48
41.31 41.77 37.61 43.72 45.32 46.39 46.47 41.19 47.13 50.24 48.43 48.96 49.47 50.12 51.00 52.14 52.62 54.36 56.57 58.34 61.45 62.92 63.50 64.33 64.29 64.46 63.62 63.86 64.37 63.42 63.17 63.07 62.55 62.84 62.76 63.11 63.42 63.64 63.32 63.42 63.19 64.06 62.87 62.06 60.52 60.56 60.38 60.08 59.86
38.16 34.27 36.67 39.86 45.17 45.50 44.67 42.82 46.90 48.52 47.71 48.14 49.36 49.98 50.39 50.99 52.34 53.19 54.13 54.67 58.79 62.34 63.09 63.37 64.35 64.35 62.59 63.23 63.65 62.91 63.41 62.89 62.60 62.44 61.97 62.18 62.66 63.02 62.58 64.08 63.01 63.44 62.18 61.83 59.24 59.85 60.23 58.92 59.26
32.89 34.18 36.52 37.37 43.29 44.01 43.32 42.69 45.55 47.93 47.57 48.21 48.49 48.95 49.96 50.47 51.61 54.03 56.63 57.25 58.07 62.20 63.08 63.63 63.98 64.19 62.74 62.88 63.07 63.00 63.51 62.70 63.58 62.93 62.26 61.84 61.81 61.91 62.11 62.79 62.66 61.36 59.75 59.51 59.58 58.71 59.93 59.72 59.55
37.46 36.56 36.21 39.74 43.59 42.50 42.61 42.98 45.17 46.69 46.91 46.54 48.24 48.83 49.34 50.08 52.79 54.76 59.02 59.44 60.36 61.68 61.97 62.69 62.81 62.72 61.57 61.23 60.46 60.25 59.62 61.42 61.76 62.09 62.12 62.01 61.48 61.75 61.84 61.89 60.15 59.79 58.80 58.64 59.88 58.56 58.13 57.60 59.66
36.29 34.79 34.83 38.25 41.62 41.54 41.07 40.89 44.25 45.64 46.10 47.46 47.70 48.02 48.43 49.84 50.97 52.92 57.74 57.87 59.09 59.96 61.29 61.18 62.03 61.16 61.50 61.11 60.73 62.52 61.95 61.56 62.13 62.54 62.61 62.89 61.59 61.40 61.67 60.95 59.27 58.36 57.20 57.13 57.92 58.75 57.50 57.32 58.76
34.94 33.93 34.39 34.41 39.34 41.90 39.88 37.68 39.70 43.17 45.02 46.00 46.58 47.73 48.93 49.28 50.72 52.76 54.36 57.71 57.88 59.18 58.74 59.43 60.47 60.44 61.37 62.03 61.20 59.95 61.24 61.00 60.76 61.42 61.95 61.74 61.35 61.08 61.05 60.68 59.81 58.47 56.83 55.26 56.04 58.90 58.24 55.71 57.91
31.83 36.82 36.13 35.54 34.89 30.60 38.32 30.65 37.68 40.86 42.29 44.54 46.83 48.73 50.79 52.41 53.12 52.53 52.59 56.85 57.80 58.59 58.48 59.10 60.05 60.06 59.77 60.02 59.51 58.42 58.84 58.43 60.23 60.76 61.86 60.81 60.85 60.77 59.49 58.56 59.12 58.34 56.94 55.18 55.88 58.80 59.34 58.30 56.09
34.55 38.02 36.57 36.24 34.36 33.73 34.31 31.58 35.40 39.49 40.72 42.94 48.51 49.33 51.00 53.78 53.38 51.90 52.93 56.10 58.43 59.24 57.36 58.66 60.57 59.74 57.89 59.00 58.98 58.08 59.14 60.20 60.32 60.36 60.31 60.56 60.13 58.92 57.79 57.25 56.83 56.87 56.57 56.44 55.37 57.27 58.89 59.10 57.67
38.86 36.56 35.52 34.98 33.54 26.65 32.04 31.46 33.04 37.66 40.51 45.74 47.78 49.28 50.55 52.40 54.21 55.89 55.00 56.82 57.97 59.22 56.57 59.10 59.86 57.50 57.40 59.70 59.32 59.13 58.30 58.43 58.86 58.93 58.88 58.64 57.92 56.46 56.42 55.08 55.03 55.69 55.79 55.91 56.52 57.03 59.10 58.68 58.47
36.85 34.22 27.47 25.99 25.53 26.30 33.96 30.74 34.97 40.43 44.58 47.63 47.28 48.92 50.74 52.28 53.63 54.85 55.50 56.04 56.86 55.61 55.67 57.34 57.91 56.13 57.54 59.63 60.10 59.61 58.37 57.86 59.11 58.68 58.12 56.10 55.95 54.55 54.24 54.21 54.97 55.89 56.35 56.16 56.01 56.88 57.82 58.56 58.19
34.18 34.40 28.05 21.21 23.56 28.02 33.63 29.03 35.10 42.92 46.34 49.02 49.00 50.06 51.05 51.84 53.80 54.96 55.32 56.19 55.86 54.76 55.27 56.34 55.85 56.07 57.00 58.80 59.32 59.61 59.54 58.88 60.02 58.65 58.69 56.69 56.54 54.92 55.44 54.83 56.41 57.20 56.78 55.78 55.90 55.80 56.76 58.22 57.06
34.76 31.33 38.14 31.34 32.26 29.62 32.67 36.59 41.73 44.39 46.54 47.63 47.77 49.30 49.31 51.60 54.19 54.91 55.52 55.97 56.18 55.41 54.92 55.63 55.72 56.42 56.12 57.77 58.31 58.21 58.73 59.15 58.90 58.47 58.75 58.41 58.02 56.28 56.16 56.38 56.91 57.10 56.61 56.46 56.33 55.76 56.07 55.84 56.03
37.50 40.09 30.72 32.26 24.58 23.55 29.69 32.43 35.28 40.98 43.54 46.28 46.83 47.69 48.64 51.64 53.63 55.00 55.26 55.68 55.93 55.39 55.21 56.08 56.53 56.04 56.58 56.72 57.37 57.55 57.64 58.50 59.02 58.40 57.73 58.38 58.29 56.57 55.70 56.06 56.29 56.68 56.47 56.90 57.01 56.88 56.92 56.65 56.98
32.79 33.39 35.36 35.81 32.70 26.95 26.01 30.89 40.47 40.97 45.06 46.15 47.31 47.53 48.53 50.49 52.27 53.15 54.81 54.86 54.88 55.08 55.20 55.10 55.45 55.53 55.98 55.91 56.60 56.72 56.84 57.90 57.87 57.70 57.55 58.06 58.23 57.95 56.34 55.34 54.81 54.44 54.71 56.02 56.25 56.11 56.51 56.20 57.13
36.63 34.37 35.72 31.11 28.89 32.67 32.40 32.21 43.60 45.17 46.58 46.84 47.75 47.58 48.58 49.62 51.20 52.15 51.99 54.69 54.37 54.63 54.59 54.51 55.38 55.87 56.13 56.12 56.27 56.58 56.73 57.11 57.77 56.87 57.13 57.53 57.29 58.18 57.88 56.83 55.74 54.46 53.77 54.42 55.55 56.16 55.98 55.43 55.05
MSLP
1011.90 1012.00 1011.95 1011.78 1012.41 1011.84 1010.65 1009.73 1009.37 1008.73 1008.37 1007.97 1007.80 1007.83 1007.73 1007.64 1008.00 1007.93 1007.51 1007.68 1008.06 1008.27 1008.74 1009.41 1009.94 1010.25 1010.62 1010.90 1011.06 1011.18 1011.23 1011.39 1011.87 1012.35 1012.81 1013.08 1013.37 1013.76 1014.33 1014.63 1014.74 1015.12 1015.43 1015.86 1016.09 1016.17 1016.47 1016.93 1017.29
1011.89 1011.97 1012.06 1012.02 1011.75 1010.99 1009.95 1009.34 1008.70 1008.16 1007.80 1007.70 1007.58 1007.38 1007.39 1007.16 1007.43 1007.25 1007.31 1007.42 1007.84 1008.25 1008.77 1009.16 1009.77 1010.31 1010.78 1011.13 1011.27 1011.40 1011.50 1011.62 1011.96 1012.46 1012.85 1013.12 1013.41 1013.50 1013.94 1014.64 1015.00 1015.33 1015.69 1016.00 1016.42 1016.61 1016.86 1017.35 1017.62
1011.65 1011.85 1011.95 1011.83 1011.46 1010.23 1009.24 1008.63 1008.14 1007.94 1007.64 1007.34 1007.03 1006.95 1006.87 1006.59 1006.95 1006.85 1006.66 1007.01 1007.72 1008.31 1008.75 1009.27 1009.92 1010.44 1010.93 1011.38 1011.56 1011.70 1011.86 1012.01 1012.18 1012.27 1012.67 1013.50 1014.11 1014.62 1014.41 1014.67 1014.99 1015.62 1015.80 1016.12 1016.59 1016.93 1017.31 1017.68 1018.01
1011.61 1011.89 1012.81 1011.88 1010.74 1010.12 1009.15 1008.14 1008.06 1007.80 1007.37 1007.24 1006.82 1006.74 1006.63 1006.26 1006.26 1006.45 1006.65 1007.22 1007.67 1008.35 1008.86 1009.56 1010.01 1010.44 1010.94 1011.40 1011.76 1011.86 1012.01 1012.10 1012.30 1012.44 1012.96 1013.33 1014.10 1014.45 1014.90 1015.04 1015.32 1015.76 1016.19 1016.51 1016.73 1017.27 1017.65 1018.00 1018.24
1011.99 1011.93 1011.80 1011.35 1010.50 1009.77 1008.94 1008.39 1008.09 1007.60 1007.44 1007.11 1007.06 1006.67 1006.45 1006.24 1006.36 1006.56 1006.79 1007.33 1007.70 1008.42 1008.79 1009.48 1010.00 1010.36 1010.86 1011.20 1011.66 1011.96 1012.19 1012.29 1012.20 1012.42 1012.68 1013.29 1014.20 1015.17 1015.46 1015.21 1015.61 1015.91 1016.25 1016.95 1017.44 1017.60 1017.91 1018.28 1018.57
1011.80 1011.90 1011.53 1010.72 1010.12 1009.63 1008.69 1008.17 1007.94 1007.43 1007.12 1006.89 1006.89 1006.76 1006.29 1006.15 1006.46 1006.69 1007.04 1007.45 1007.90 1008.61 1008.98 1009.32 1010.01 1010.40 1010.86 1011.23 1011.54 1011.90 1012.20 1012.36 1012.37 1012.49 1012.97 1013.51 1014.17 1014.59 1014.88 1015.09 1015.48 1016.18 1016.63 1017.37 1017.85 1017.99 1018.19 1018.58 1018.88
1011.11 1011.42 1010.97 1010.57 1009.91 1009.35 1008.44 1007.87 1007.56 1007.02 1006.82 1006.62 1006.52 1006.51 1006.23 1006.33 1006.81 1007.05 1007.22 1007.66 1007.94 1008.47 1008.93 1009.28 1009.61 1010.27 1010.80 1011.16 1011.41 1011.76 1012.03 1012.32 1012.49 1012.81 1013.14 1013.73 1014.09 1014.62 1014.70 1014.87 1015.21 1015.60 1015.94 1017.65 1018.15 1018.30 1018.51 1018.96 1019.24
1011.23 1011.19 1010.81 1010.35 1009.42 1008.56 1007.97 1007.60 1007.16 1006.85 1006.68 1006.57 1006.49 1006.29 1006.38 1006.77 1007.40 1007.49 1007.60 1007.82 1008.20 1008.62 1009.06 1009.31 1009.54 1009.88 1010.47 1011.02 1011.28 1011.65 1011.91 1012.20 1012.60 1012.86 1013.19 1013.43 1013.30 1014.05 1014.71 1014.95 1015.77 1014.92 1016.61 1017.48 1018.13 1018.42 1018.76 1019.27 1019.59
1011.58 1011.05 1010.09 1009.38 1008.94 1008.01 1007.81 1007.53 1007.27 1007.04 1006.83 1006.62 1006.38 1006.43 1006.66 1006.92 1007.44 1007.76 1007.75 1007.98 1008.26 1008.77 1009.07 1009.33 1009.69 1009.87 1010.21 1010.64 1011.10 1011.58 1011.85 1012.19 1012.58 1012.96 1013.23 1013.56 1013.94 1014.26 1014.74 1014.85 1015.80 1015.14 1016.34 1017.38 1018.04 1018.43 1018.93 1019.43 1019.95
1010.93 1010.18 1009.38 1008.73 1008.34 1007.91 1007.72 1007.55 1007.36 1007.02 1006.79 1006.60 1006.54 1006.57 1006.73 1007.09 1007.43 1007.49 1007.38 1007.32 1007.73 1008.30 1008.83 1009.21 1009.59 1009.91 1010.08 1010.47 1010.86 1011.33 1011.79 1012.05 1012.33 1012.86 1013.34 1013.79 1014.18 1014.04 1014.24 1015.10 1015.54 1015.48 1016.36 1017.22 1017.62 1018.10 1019.02 1019.49 1019.98
1010.25 1008.92 1009.07 1008.42 1008.30 1008.10 1007.75 1007.38 1007.13 1006.90 1006.27 1005.96 1006.07 1005.94 1006.34 1006.77 1007.04 1007.11 1007.07 1006.96 1006.76 1007.61 1008.30 1008.82 1009.34 1009.63 1010.07 1010.48 1010.77 1011.21 1011.68 1011.96 1012.29 1012.63 1013.18 1013.77 1014.11 1014.40 1014.70 1015.32 1015.50 1016.13 1016.85 1017.25 1017.90 1018.53 1019.01 1019.50 1019.91
1009.94 1009.11 1008.68 1008.05 1008.12 1007.97 1007.53 1007.39 1006.80 1006.58 1006.16 1005.42 1005.87 1005.96 1006.05 1006.07 1006.30 1006.37 1006.38 1006.31 1006.87 1007.35 1007.91 1008.46 1009.03 1009.48 1009.83 1010.26 1010.69 1010.96 1011.52 1011.82 1012.19 1012.58 1012.99 1013.46 1013.99 1014.31 1014.74 1015.27 1015.41 1016.17 1016.62 1017.16 1017.82 1018.59 1019.16 1019.58 1020.08
1009.38 1008.84 1008.43 1007.99 1007.82 1007.69 1007.49 1006.77 1006.43 1006.13 1005.85 1005.61 1005.53 1005.59 1005.53 1005.53 1005.57 1005.58 1005.57 1006.06 1006.48 1006.80 1007.29 1007.94 1008.52 1009.29 1009.56 1010.07 1010.63 1010.90 1011.52 1011.63 1012.02 1012.57 1012.96 1013.40 1013.61 1014.14 1014.67 1014.96 1015.43 1016.01 1016.61 1017.29 1017.96 1018.34 1019.15 1019.74 1020.22
1008.61 1008.46 1008.01 1007.87 1007.65 1007.46 1007.15 1005.84 1006.09 1005.56 1005.60 1005.51 1005.15 1004.86 1004.86 1005.01 1004.67 1004.72 1005.16 1005.26 1005.67 1005.96 1006.30 1007.19 1007.95 1008.75 1009.59 1009.97 1010.33 1010.75 1011.21 1011.42 1011.71 1012.23 1012.68 1013.15 1013.54 1013.90 1014.27 1014.58 1015.16 1015.87 1016.40 1017.34 1017.41 1018.01 1018.92 1019.66 1020.14
1008.48 1008.12 1007.81 1007.53 1007.33 1006.94 1006.73 1004.74 1004.50 1004.63 1004.56 1004.60 1004.53 1004.37 1004.39 1004.29 1004.26 1004.13 1003.90 1004.29 1004.29 1004.78 1005.59 1006.25 1007.34 1008.25 1009.05 1009.68 1010.14 1010.56 1010.95 1011.32 1011.61 1011.87 1012.32 1012.87 1013.25 1013.66 1014.15 1014.44 1015.06 1015.33 1016.26 1017.02 1017.43 1018.29 1018.62 1019.59 1020.18
1008.50 1008.03 1007.38 1006.80 1006.53 1006.37 1006.42 1002.25 1003.90 1003.87 1004.18 1004.02 1003.93 1003.94 1004.05 1003.92 1003.77 1003.46 1003.26 1003.25 1003.50 1004.26 1004.90 1005.84 1006.79 1007.68 1008.53 1009.14 1009.79 1010.26 1010.74 1011.04 1011.37 1011.80 1012.18 1012.51 1012.87 1013.19 1013.66 1014.15 1014.76 1015.12 1016.00 1016.76 1017.14 1017.99 1018.51 1019.47 1020.12
1008.38 1007.28 1007.21 1006.80 1006.20 1006.04 1005.75 1003.10 1003.56 1003.65 1003.78 1003.74 1003.59 1003.62 1003.47 1003.37 1003.11 1002.81 1002.53 1002.56 1002.76 1003.43 1004.30 1005.21 1006.13 1007.04 1008.05 1008.76 1009.33 1009.95 1010.44 1010.76 1011.07 1011.46 1011.78 1012.18 1012.53 1012.71 1013.10 1013.54 1014.19 1014.79 1015.71 1016.35 1016.95 1017.66 1018.30 1019.17 1020.02
1007.91 1007.61 1006.98 1006.22 1005.98 1005.75 1005.13 1003.77 1003.85 1003.50 1003.49 1003.45 1003.23 1003.11 1003.01 1002.64 1002.07 1002.01 1002.09 1002.07 1002.56 1003.03 1003.75 1004.55 1005.38 1006.35 1007.54 1008.35 1009.04 1009.66 1010.06 1010.28 1010.52 1010.96 1011.30 1011.77 1012.15 1012.49 1012.57 1013.09 1013.77 1014.52 1015.44 1016.03 1016.66 1017.44 1018.25 1018.86 1019.68
1007.61 1007.35 1006.58 1006.39 1006.05 1005.84 1004.86 1003.65 1003.39 1003.41 1003.24 1003.22 1002.78 1002.44 1002.15 1001.67 1001.12 1001.49 1001.83 1002.10 1002.58 1003.08 1003.60 1004.06 1004.86 1005.90 1007.02 1007.78 1008.65 1009.21 1009.53 1009.83 1010.19 1010.57 1010.83 1011.21 1011.71 1011.92 1012.48 1012.24 1013.34 1014.45 1015.10 1015.41 1015.96 1017.25 1018.09 1019.03 1019.68
1007.45 1007.15 1005.72 1006.49 1006.58 1006.19 1004.97 1002.62 1003.06 1002.90 1002.45 1002.16 1001.97 1001.61 1001.30 1000.88 1000.81 1000.91 1001.43 1002.04 1002.51 1003.09 1003.55 1003.90 1004.56 1005.39 1006.63 1007.35 1008.07 1008.44 1009.25 1009.56 1009.72 1010.17 1010.35 1010.60 1010.96 1011.46 1011.73 1012.02 1012.86 1013.82 1015.04 1015.60 1015.87 1016.66 1017.80 1018.53 1019.43
1006.78 1006.45 1006.50 1006.40 1006.50 1005.99 1005.21 1001.95 1002.29 1001.43 1001.48 1001.27 1001.24 1000.98 1000.80 1000.90 1000.72 1000.45 1000.80 1001.39 1002.03 1002.71 1003.43 1003.63 1004.08 1004.83 1005.69 1006.68 1007.56 1008.34 1009.02 1009.36 1009.55 1009.70 1009.73 1009.90 1010.22 1010.51 1010.95 1011.57 1012.33 1012.97 1014.27 1014.99 1015.50 1016.20 1016.76 1017.50 1019.01
1006.16 1006.37 1006.56 1006.35 1006.62 1005.77 1005.30 1001.92 1001.57 1001.26 1000.87 1000.75 1000.58 1001.11 1001.07 1000.85 1000.43 1000.10 1000.14 1000.58 1001.17 1002.40 1003.39 1003.78 1004.11 1004.67 1005.59 1006.36 1006.97 1007.71 1008.23 1008.41 1008.77 1009.04 1009.22 1009.43 1009.63 1009.85 1010.15 1010.89 1011.59 1012.28 1013.49 1014.41 1015.12 1015.59 1016.16 1016.90 1017.92
1005.43 1005.68 1005.74 1005.86 1006.02 1006.24 1005.05 1004.25 1001.56 1001.45 1000.66 1000.70 1001.05 1001.33 1001.26 1000.82 1000.37 999.87 999.77 1000.07 1000.80 1001.69 1002.86 1003.57 1004.03 1004.59 1005.49 1006.03 1006.60 1007.33 1007.87 1008.09 1008.24 1008.60 1008.85 1009.03 1009.41 1009.65 1009.86 1010.49 1011.23 1011.98 1012.82 1013.67 1014.54 1015.40 1015.88 1016.46 1017.14
1005.25 1005.58 1005.95 1006.24 1006.27 1005.52 1004.41 1004.23 1001.45 1001.01 1000.34 1000.95 1001.42 1001.52 1001.43 1000.71 1000.23 999.91 999.74 1000.14 1000.83 1001.71 1002.93 1003.31 1003.62 1004.67 1005.29 1005.92 1006.36 1006.81 1007.47 1007.75 1007.96 1008.28 1008.44 1008.64 1008.94 1009.47 1009.71 1010.37 1010.89 1011.71 1012.36 1013.18 1014.04 1014.74 1015.41 1015.98 1016.67
1004.59 1005.01 1005.49 1005.91 1005.48 1003.79 1003.56 1003.48 1001.15 1000.78 1000.81 1000.96 1001.42 1001.59 1001.38 1000.85 1000.31 1000.04 999.99 1000.50 1001.05 1002.09 1002.92 1003.37 1003.87 1004.60 1005.31 1005.88 1006.32 1006.69 1007.45 1007.71 1007.54 1007.86 1007.99 1008.25 1008.74 1009.23 1009.69 1010.27 1010.90 1011.48 1012.13 1012.84 1013.70 1014.48 1015.16 1015.71 1016.39
1003.35 1003.74 1003.77 1003.55 1003.61 1003.06 1003.48 1002.18 1000.66 999.95 1000.69 1001.48 1001.89 1001.73 1001.35 1000.84 1000.49 1000.31 1000.29 1000.45 1001.24 1002.10 1002.78 1003.31 1003.93 1004.56 1005.29 1005.90 1006.17 1006.56 1007.14 1007.26 1007.36 1007.70 1007.69 1007.96 1008.25 1008.90 1009.48 1010.18 1010.70 1011.36 1011.92 1012.77 1013.69 1014.45 1014.91 1015.62 1016.31
1002.53 1002.95 1002.21 1002.79 1002.99 1002.68 1002.07 1001.41 1000.73 1000.46 1000.94 1001.66 1001.93 1001.53 1001.39 1001.25 1000.89 1000.60 1000.38 1000.83 1001.25 1002.11 1002.66 1003.12 1003.88 1004.47 1005.25 1005.71 1005.79 1006.20 1006.80 1006.94 1007.18 1007.35 1007.64 1007.86 1008.19 1008.75 1009.41 1009.98 1010.46 1011.21 1011.94 1012.70 1013.55 1014.46 1015.12 1015.70 1016.23
1001.57 1001.60 1002.62 1002.56 1002.21 1001.75 1001.40 1001.13 1000.30 1000.78 1001.30 1001.89 1002.04 1001.77 1001.90 1001.75 1001.27 1001.15 1001.18 1001.42 1001.77 1002.15 1002.75 1003.20 1003.57 1004.30 1004.82 1005.44 1005.46 1005.94 1006.54 1006.91 1007.04 1007.24 1007.59 1007.82 1008.18 1008.65 1009.38 1009.77 1010.44 1011.17 1011.96 1012.87 1013.63 1014.48 1015.08 1015.54 1016.27
1001.68 1001.63 1001.53 1001.54 1001.68 1001.02 1000.90 1000.72 1000.45 1000.54 1001.13 1001.50 1001.87 1002.14 1002.13 1001.93 1001.79 1001.88 1001.89 1002.12 1002.25 1002.43 1002.88 1003.29 1003.53 1004.37 1004.75 1005.29 1005.25 1005.72 1006.42 1006.86 1007.11 1007.26 1007.52 1007.89 1008.17 1008.65 1009.18 1009.92 1010.28 1010.82 1011.75 1012.71 1013.58 1014.14 1014.96 1015.33 1015.95
1001.55 1001.24 1001.33 1000.90 1001.02 1001.01 1000.71 1000.78 1000.84 1000.84 1001.22 1001.56 1002.02 1002.22 1002.19 1001.98 1001.96 1002.38 1002.57 1002.68 1002.80 1002.83 1003.12 1003.48 1003.78 1004.44 1004.81 1005.04 1005.06 1005.47 1006.20 1006.70 1006.97 1007.22 1007.64 1007.94 1008.22 1008.50 1008.85 1009.51 1010.19 1011.01 1011.64 1012.28 1013.14 1013.70 1014.15 1015.01 1015.58
Wind_Speed
6 4 2 3 3 1 3 4 2 3 4 3 6 5 7 1 6 3 1 11 6 10 12 13 11 12 11 10 11 11 14 18 19 19 18 19 19 18 15 14 15 17 17 18 17 17 19 20 16
6 3 3 3 3 3 3 2 6 6 2 2 4 4 4 2 2 1 6 14 10 11 11 13 12 11 11 9 10 11 14 17 19 20 18 20 20 21 20 16 15 16 17 17 17 18 19 17 17
5 3 2 3 3 6 4 6 5 2 6 5 4 2 3 3 3 3 4 16 11 11 11 11 12 11 11 8 9 9 11 13 17 19 19 17 16 16 18 17 16 14 16 17 17 19 19 15 17
3 2 3 4 9 5 5 4 4 7 1 5 1 3 2 3 5 4 6 14 11 11 10 11 12 11 12 10 8 9 10 11 12 18 20 22 16 22 17 16 14 16 14 14 18 19 17 16 17
3 2 2 4 6 5 7 7 5 6 3 4 4 3 3 3 2 2 8 12 12 10 10 12 12 12 12 13 11 10 11 11 16 18 17 23 17 8 13 13 15 15 13 13 16 18 17 16 17
3 1 3 9 8 4 7 8 3 3 3 3 2 2 4 0 3 4 7 11 10 11 10 11 14 13 12 13 13 11 13 10 9 12 15 19 21 23 19 16 14 13 13 13 15 16 17 16 17
4 3 4 4 4 4 5 4 4 2 3 2 2 4 4 3 1 4 7 9 10 10 10 11 13 13 11 11 12 11 12 14 11 14 15 17 17 17 18 18 14 14 18 15 16 15 16 16 15
3 3 6 6 8 9 6 3 3 1 1 1 3 2 2 4 1 4 6 8 8 9 9 9 10 12 12 12 11 12 14 11 14 16 14 15 20 17 15 14 13 20 17 17 16 15 15 13 14
2 4 8 10 10 6 3 4 2 0 2 4 3 1 2 4 3 5 6 6 7 7 9 9 10 12 12 9 10 11 13 16 16 16 16 14 10 13 17 14 14 21 21 20 18 17 15 15 14
6 7 12 6 8 6 3 3 1 3 4 4 5 4 3 1 5 10 10 13 13 12 11 10 11 11 11 8 8 9 10 10 12 13 16 10 10 11 13 11 11 21 20 21 20 19 17 15 10
6 13 6 5 9 6 6 8 5 5 8 8 8 14 8 5 8 11 15 15 17 12 10 12 12 12 11 9 5 3 4 6 8 14 13 11 8 9 8 4 7 8 16 11 12 14 9 12 10
7 7 12 8 6 5 6 3 9 10 14 15 11 11 10 12 11 14 16 18 14 13 13 13 13 11 11 7 5 5 4 6 6 10 14 10 8 10 9 6 7 6 8 11 12 7 10 12 11
8 5 7 11 12 10 9 18 18 9 15 13 13 12 14 12 13 14 16 13 13 15 15 15 14 12 9 9 5 6 5 6 7 9 11 9 10 10 9 10 7 8 8 11 9 12 9 11 11
2 6 13 10 13 7 14 21 11 11 14 13 10 14 13 11 16 13 12 17 16 16 17 16 15 14 11 9 9 6 6 6 9 9 10 12 10 9 11 10 11 8 9 8 11 13 10 10 10
5 12 11 10 7 9 5 20 16 19 17 17 15 14 13 12 11 14 17 17 18 17 15 18 17 15 14 12 9 7 6 6 5 7 12 13 11 11 12 9 9 10 10 11 9 12 12 9 9
5 5 6 1 11 7 11 25 6 9 10 14 10 8 9 13 11 13 16 17 16 15 17 17 14 17 15 12 10 7 7 6 6 6 8 14 14 14 13 11 9 10 10 10 11 12 11 10 9
6 14 10 6 8 5 16 18 4 2 2 6 8 10 10 13 15 14 15 13 14 15 16 18 18 18 16 11 8 8 10 7 6 7 8 12 13 14 13 12 10 14 10 12 11 12 12 11 9
10 11 9 15 6 10 15 18 13 13 9 10 11 11 13 15 19 12 10 8 9 13 15 17 15 17 15 9 7 6 7 8 7 7 8 11 8 13 12 11 11 12 10 10 13 12 12 12 11
12 11 14 5 2 6 13 21 17 13 11 11 14 15 17 18 17 10 6 3 6 10 15 18 18 17 12 9 7 7 7 6 6 7 9 11 10 8 12 8 10 11 12 14 16 13 15 10 11
16 20 25 13 11 11 19 28 20 17 18 19 19 18 18 17 15 12 7 5 8 10 14 16 17 18 13 10 7 6 5 4 6 7 10 13 12 13 12 9 13 14 11 12 16 16 12 8 12
20 23 17 18 7 10 9 30 21 18 20 18 15 18 15 12 14 15 10 9 9 13 14 16 18 19 15 14 9 5 5 3 5 7 6 10 13 14 15 16 14 15 12 12 15 16 16 11 12
18 11 17 15 9 11 6 13 3 9 12 9 9 5 7 9 11 14 13 11 13 11 12 14 16 17 14 13 11 10 8 8 5 6 6 6 11 12 12 13 16 16 13 14 13 15 14 14 14
9 10 15 16 15 10 15 10 1 4 5 1 5 5 8 10 11 12 12 10 9 13 12 14 16 16 14 15 12 9 10 5 4 4 8 8 9 10 12 14 13 15 12 15 16 16 14 13 13
6 6 5 3 6 9 13 12 3 9 6 7 4 6 7 12 12 12 8 5 8 10 11 14 16 14 13 15 14 14 11 8 6 6 6 5 6 8 12 13 13 14 13 16 15 16 17 15 12
17 12 7 7 7 9 6 12 10 7 5 8 8 6 8 11 13 12 10 1 5 9 11 12 14 12 12 14 13 11 10 11 10 9 5 8 6 7 10 12 13 11 14 15 14 15 14 15 13
19 17 9 10 8 7 9 10 7 12 10 9 6 7 10 14 13 13 9 3 5 9 10 12 13 11 12 13 12 9 10 7 6 7 6 7 7 9 12 12 13 13 14 12 11 8 10 12 9
9 18 15 3 1 3 6 5 8 8 14 8 5 10 14 14 15 17 10 3 4 8 10 11 12 12 12 13 10 8 7 7 5 7 6 6 7 9 13 12 13 13 13 13 12 9 8 9 8
10 17 10 6 9 7 4 3 4 12 13 10 8 12 11 12 16 17 13 6 0 5 8 9 12 13 13 12 9 7 7 5 5 6 7 6 7 13 13 14 13 13 12 12 13 10 10 10 7
12 12 7 9 5 10 9 5 4 1 14 11 11 11 11 14 16 17 13 7 1 5 7 8 10 11 11 11 9 9 7 6 4 5 5 7 6 11 14 15 16 16 13 10 8 10 10 9 11
10 21 10 11 13 7 5 5 3 6 10 10 11 11 12 16 17 16 14 10 2 5 7 8 8 9 10 10 11 9 7 7 7 6 5 6 6 7 9 12 13 14 15 16 15 12 12 15 13
Wind_Direction
164 112 96 69 210 331 256 232 276 223 210 196 139 166 197 144 169 201 47 182 159 153 162 165 165 177 174 163 155 149 146 147 149 148 146 140 137 134 132 132 134 143 141 136 134 134 129 127 125
139 116 64 102 186 203 228 228 226 229 250 252 193 167 182 208 232 209 165 185 176 159 158 168 168 167 165 166 159 158 155 151 150 143 147 147 146 140 134 131 128 133 139 141 136 129 131 130 125
120 45 174 145 171 208 225 200 189 228 294 217 188 240 178 187 196 204 223 171 163 159 163 164 165 158 160 166 155 153 149 148 160 153 145 137 134 130 131 130 132 139 144 146 139 132 127 125 115
136 112 92 224 220 229 227 203 207 295 280 220 158 235 240 229 170 193 163 171 160 160 155 154 156 158 162 159 152 150 149 143 143 143 147 138 141 146 139 127 130 143 140 144 139 134 123 122 119
49 97 189 237 241 262 242 267 270 286 283 205 187 240 241 225 205 212 166 171 169 163 158 164 159 158 166 170 162 155 140 153 170 167 155 153 138 75 167 140 138 137 137 138 139 129 127 125 121
115 114 198 241 239 250 267 244 253 237 240 225 223 211 245 110 211 171 163 172 161 162 164 163 168 162 167 171 176 166 158 172 174 152 144 136 160 173 157 150 141 132 127 144 140 134 132 130 123
174 160 222 251 253 261 241 185 205 246 308 196 135 190 270 290 192 155 161 163 159 169 171 171 170 171 166 175 172 166 167 177 165 145 141 146 151 155 147 146 140 134 128 147 144 142 133 132 125
143 199 177 218 242 262 217 210 166 119 57 284 178 192 319 11 38 132 152 160 167 175 185 180 174 171 180 185 178 175 169 163 155 151 155 154 152 150 135 131 161 131 144 150 149 142 132 131 118
153 208 216 229 194 231 209 207 206 331 254 346 297 191 272 322 148 170 156 172 177 186 192 186 183 181 181 180 186 182 164 164 160 158 166 163 159 156 151 160 178 144 152 149 153 139 133 124 120
202 224 216 221 208 229 189 210 211 276 312 276 262 261 285 338 206 209 204 201 197 195 195 193 193 186 177 177 178 196 178 177 171 174 175 171 171 161 157 170 178 157 152 152 151 138 133 144 147
198 238 223 240 232 238 250 260 192 254 284 260 280 308 301 272 237 229 232 221 208 199 191 190 194 192 178 181 166 165 173 175 179 176 177 179 170 164 158 161 169 161 144 151 144 138 145 158 157
238 229 233 247 217 212 242 252 259 242 259 269 263 273 286 276 257 235 234 228 214 199 197 193 195 190 181 174 169 158 171 174 184 181 178 175 179 179 175 173 168 171 158 154 160 148 151 156 155
237 240 223 237 247 248 264 258 261 240 250 278 273 270 266 264 261 249 239 243 221 211 199 200 189 193 173 169 168 166 183 179 172 178 184 183 186 185 176 184 175 168 154 162 165 153 154 157 156
247 256 261 264 254 251 256 260 248 239 256 256 253 264 262 256 256 262 241 236 221 217 205 193 191 183 181 181 174 173 174 188 181 174 183 180 187 178 186 183 179 162 155 166 167 158 147 163 161
256 284 270 242 235 239 253 262 243 249 239 240 245 257 267 255 265 250 255 245 234 217 200 192 184 178 184 183 178 171 180 173 171 185 180 188 180 177 185 183 172 166 164 161 155 161 144 158 166
264 263 273 309 207 226 198 255 248 255 212 233 248 252 267 266 252 260 262 259 246 218 201 184 176 175 180 175 179 168 175 172 170 174 180 188 191 183 183 188 179 160 157 162 161 163 153 155 166
231 255 252 280 205 211 214 270 277 154 174 273 273 281 281 280 278 262 264 268 255 212 191 181 178 178 178 172 165 165 180 181 178 181 180 192 187 194 184 187 177 163 162 170 159 160 162 156 164
232 240 237 244 200 207 245 257 263 283 290 278 284 281 282 281 274 271 276 282 241 196 186 178 176 175 170 161 159 168 192 194 188 190 189 186 193 191 188 191 173 163 162 168 163 158 162 162 158
240 244 252 248 222 268 263 267 270 271 272 264 270 271 272 268 269 267 268 266 197 185 182 177 171 169 162 155 167 189 199 187 186 193 183 186 195 197 200 164 156 161 172 174 163 155 154 144 152
226 243 253 261 257 272 271 270 273 267 260 259 259 264 261 261 267 272 250 208 196 190 191 176 172 165 169 169 170 182 180 190 191 199 195 202 200 195 193 178 167 161 165 166 161 162 156 137 165
229 234 251 253 258 254 279 278 269 258 251 260 253 250 266 278 281 281 269 219 197 198 194 179 171 167 168 175 162 127 166 149 183 198 206 210 209 203 200 185 180 160 165 167 167 166 169 152 173
238 217 234 236 228 251 211 281 242 299 267 233 256 342 318 316 296 274 268 228 199 200 193 179 168 165 168 166 171 176 197 196 186 202 204 197 201 198 179 178 176 168 168 168 175 172 173 157 164
230 194 210 221 226 254 239 270 302 245 232 220 83 20 2 346 348 302 282 258 203 176 174 175 173 168 169 177 170 173 201 192 175 190 199 193 187 183 173 165 172 168 167 171 169 173 172 170 162
171 135 138 142 193 240 234 225 206 219 229 142 95 59 39 25 7 1 336 215 188 170 170 182 172 173 174 179 176 185 203 210 203 210 208 191 184 171 169 164 165 166 165 168 169 169 169 168 167
185 173 188 206 200 238 216 203 260 244 205 146 122 76 41 29 23 10 11 196 163 171 186 184 176 168 179 183 186 190 204 219 217 212 200 167 170 166 162 160 161 166 166 164 163 167 167 169 169
192 187 188 209 208 231 158 220 240 244 173 136 106 64 44 28 20 13 4 172 181 177 186 178 177 167 169 179 179 180 202 215 224 207 188 177 169 162 155 158 159 159 152 151 159 162 162 167 160
180 200 200 153 61 188 196 228 265 148 138 140 85 48 36 26 20 16 26 69 157 194 178 177 171 162 170 180 168 170 185 205 193 188 189 160 157 153 150 151 145 141 137 141 150 162 144 153 150
190 186 184 218 210 206 194 209 188 177 155 147 88 62 44 36 35 31 31 45 232 172 174 180 170 169 171 175 157 166 164 184 179 164 171 161 156 154 156 155 150 133 133 142 146 151 154 149 154
208 195 191 197 213 217 225 220 233 267 171 144 108 85 66 52 48 40 26 25 102 152 164 160 152 166 170 176 158 149 153 166 156 148 153 164 151 162 171 168 166 164 160 155 157 156 155 159 168
221 212 193 198 187 217 220 193 331 152 145 135 129 117 95 74 60 45 36 19 82 145 150 147 148 174 180 170 171 158 159 161 165 148 148 153 157 159 160 158 163 166 171 183 187 179 176 185 184